User: anonymous   Login
Location: Unspecified
(0.0000°N, 0.0000°E)
Time: 19:20:12
(UTC+00:00)
Language:

Galileo 6 - Orbit

View from above orbital plane
View from above orbital plane
View from above satellite
View from above satellite

Ground track
Ground track

The orbit data is extracted from the following two-line orbital elements,

1 40129U 14050B   18139.66807915 -.00000095 +00000-0 +00000-0 0  9995
2 40129 050.5145 030.7424 1650367 075.6987 302.0257 01.85518781025749
Epoch (UTC): 19 May 2018 16:02:02
Eccentricity: 0.1650367
inclination: 50.5145°
perigee height: 16982 km
apogee height: 26216 km
right ascension of ascending node: 30.7424°
argument of perigee: 75.6987°
revolutions per day: 1.85518781
mean anomaly at epoch: 302.0257°
orbit number at epoch: 2574

The dashed part of the orbit path shows where the satellite is in the earth's shadow,  

DLR